UAL236 KOMA-KDEN

Flight info

Callsign UAL236
Flight time N/A
Altitude 30000
Route OBH BRWRY LAWGR3
Aircraft E170/M-SDE3GILORVW/S

Departure

Time 2026-04-27 00:53
Airport Eppley Airfield (KOMA)

Arrival

Time N/A
Airport Denver International Airport (KDEN)
Time Latitude Longitude Altitude Speed Heading
2026-04-27 00:47 41.29586 -95.89809 988 ft 0 kts 178°
2026-04-27 00:48 41.29572 -95.89799 989 ft 7 kts 133°
2026-04-27 00:48 41.29561 -95.89725 985 ft 8 kts 93°
2026-04-27 00:48 41.29562 -95.89623 986 ft 6 kts 63°
2026-04-27 00:48 41.29618 -95.89601 984 ft 18 kts 356°
2026-04-27 00:49 41.29823 -95.89606 986 ft 40 kts 359°
2026-04-27 00:49 41.30164 -95.89602 984 ft 57 kts
2026-04-27 00:49 41.30608 -95.89599 992 ft 67 kts 360°
2026-04-27 00:49 41.30879 -95.89611 987 ft 24 kts 338°
2026-04-27 00:50 41.30990 -95.89731 986 ft 11 kts 275°
2026-04-27 00:50 41.31091 -95.89968 988 ft 41 kts 325°
2026-04-27 00:50 41.31156 -95.90122 985 ft 16 kts 246°
2026-04-27 00:51 41.31089 -95.90254 989 ft 19 kts 227°
2026-04-27 00:51 41.31010 -95.90405 982 ft 20 kts 269°
2026-04-27 00:51 41.31078 -95.90498 992 ft 29 kts 323°
2026-04-27 00:51 41.31287 -95.90694 991 ft 18 kts 333°
2026-04-27 00:52 41.31346 -95.90660 990 ft 13 kts 60°
2026-04-27 00:52 41.31356 -95.90625 990 ft 2 kts 78°
2026-04-27 00:52 41.31357 -95.90597 989 ft 4 kts 103°
2026-04-27 00:52 41.31346 -95.90573 995 ft 0 kts 145°
2026-04-27 00:53 41.31324 -95.90552 992 ft 32 kts 146°
2026-04-27 00:53 41.30805 -95.90070 1023 ft 141 kts 146°
2026-04-27 00:53 41.29853 -95.89147 1786 ft 196 kts 144°
2026-04-27 00:53 41.28702 -95.88051 2956 ft 187 kts 143°
2026-04-27 00:54 41.27857 -95.87137 4376 ft 143 kts 143°
2026-04-27 00:54 41.26973 -95.86251 4576 ft 172 kts 148°
2026-04-27 00:54 41.25949 -95.85348 4830 ft 187 kts 148°
2026-04-27 00:54 41.24800 -95.84292 4845 ft 213 kts 147°
2026-04-27 00:55 41.23477 -95.83153 4880 ft 234 kts 154°
2026-04-27 00:55 41.21920 -95.82423 4930 ft 248 kts 170°
2026-04-27 00:55 41.20195 -95.82380 5255 ft 250 kts 187°
2026-04-27 00:55 41.18545 -95.83028 5709 ft 247 kts 205°
2026-04-27 00:56 41.17135 -95.84314 6084 ft 248 kts 222°
2026-04-27 00:56 41.16075 -95.86152 6329 ft 256 kts 240°
2026-04-27 00:56 41.15499 -95.88423 6511 ft 265 kts 258°
2026-04-27 00:56 41.15506 -95.90887 6804 ft 269 kts 273°
2026-04-27 00:57 41.15740 -95.93299 7372 ft 257 kts 275°
2026-04-27 00:57 41.15974 -95.95606 7947 ft 254 kts 274°
2026-04-27 00:57 41.16210 -95.97982 9410 ft 247 kts 274°
2026-04-27 00:57 41.16311 -96.00161 11278 ft 225 kts 262°
2026-04-27 00:58 41.16129 -96.02137 12409 ft 221 kts 262°
2026-04-27 00:58 41.16082 -96.04293 13162 ft 246 kts 269°
2026-04-27 00:58 41.16162 -96.06604 14173 ft 252 kts 271°
2026-04-27 00:58 41.16295 -96.08882 15568 ft 241 kts 271°
2026-04-27 00:59 41.16382 -96.11029 16984 ft 229 kts 260°
2026-04-27 00:59 41.15794 -96.13082 17293 ft 259 kts 238°
2026-04-27 00:59 41.14742 -96.15222 17509 ft 288 kts 237°
2026-04-27 00:59 41.13707 -96.17431 18843 ft 269 kts 240°
2026-04-27 01:00 41.12948 -96.19527 20631 ft 240 kts 245°
2026-04-27 01:00 41.12402 -96.21589 22127 ft 238 kts 248°
2026-04-27 01:00 41.11945 -96.23794 22869 ft 262 kts 251°
2026-04-27 01:00 41.11506 -96.26309 23109 ft 298 kts 253°
2026-04-27 01:01 41.11096 -96.29050 23479 ft 295 kts 255°
2026-04-27 01:01 41.10767 -96.31693 22669 ft 294 kts 256°